Regional Weather Roundup
Issued by NWS

Home | Current Version | Previous Version | Text Only | Print | Product List | Glossary Off
Versions: 1 2 3 4 5 6 7 8 9 10 11 12 13 14 15 16 17 18 19 20 21 22 23 24 25 26 27 28 29 30 31 32 33 34 35 36 37 38 39 40 41 42 43 44 45 46 47 48 49 50

000
ASUS43 KBIS 032010
RWRND

NORTH DAKOTA REGIONAL WEATHER ROUNDUP
NATIONAL WEATHER SERVICE BISMARCK ND
300 PM CDT TUE MAY 03 2016

NOTE: "FAIR" INDICATES FEW OR NO CLOUDS BELOW 12,000 FEET WITH NO
SIGNIFICANT WEATHER AND/OR OBSTRUCTIONS TO VISIBILITY.


NDZ001>003-009>011-017-032100-
NORTHWEST NORTH DAKOTA

CITY           SKY/WX    TMP DP  RH WIND       PRES   REMARKS
WILLISTON      SUNNY     80  38  22 N14       30.03F
MINOT          SUNNY     78  31  17 N16G28    30.00F
MINOT AFB      SUNNY     73  35  24 N16G29    30.00S
$$

NDZ018>021-031>035-040>046-032100-
SOUTHWEST NORTH DAKOTA

CITY           SKY/WX    TMP DP  RH WIND       PRES   REMARKS
BISMARCK       SUNNY     76  38  25 N21G31    29.97S
DICKINSON      SUNNY     74  35  24 NW20G26   30.03S
GARRISON         N/A     75  35  23 N17G32    30.00S
HETTINGER ARPT SUNNY     75  35  23 NW14G22   30.05F
$$

NDZ004>008-012>016-024-026-027-054-032100-
NORTHEAST NORTH DAKOTA

CITY           SKY/WX    TMP DP  RH WIND       PRES   REMARKS
GRAND FORKS    SUNNY     67  31  26 N24G53    29.89R
GRND FRKS AFB  SUNNY     67  28  23 N26G38    29.90S
DEVILS LAKE    SUNNY     66  27  23 N22G31    29.95S
$$

NDZ022-023-025-028>030-036>039-047>053-032100-
SOUTHEAST NORTH DAKOTA

CITY           SKY/WX    TMP DP  RH WIND       PRES   REMARKS
FARGO          SUNNY     71  27  19 N30G39    29.84S
JAMESTOWN      SUNNY     70  26  19 N23G35    29.92R
$$




USA.gov is the U.S. government's official web portal to all federal, state and local government web resources and services.